Tracking 19706 objects as of 17-Jun-2019
HD Live streaming from Space Station
objects crossing your sky now

METEOR 2-8 DEB

Track METEOR 2-8 DEB now!
10-day predictions


NORAD ID: 36319
Int'l Code: 1982-025D
Perigee: 838.9 km
Apogee: 876.3 km
Inclination: 82.5 °
Period: 101.9 minutes
Semi major axis: 7228 km
RCS: 0.0062 m2 (small)
Launch date: March 25, 1982
Source: Commonwealth of Independent States (former USSR) (CIS)
Launch site: PLESETSK MISSILE AND SPACE COMPLEX (PKMTR)

Note: This is SATELLITE DEBRIS
aabbcc
Your satellite tracking list
Your tracking list is empty




NASA's NSSDC Master Catalog

Two Line Element Set (TLE):
1 36319U 82025D   19166.73888339  .00000896  00000-0  47426-3 0  9990
2 36319  82.5339 165.2988 0025891   3.5078 356.6274 14.12601497832079
Source of the keplerian elements: AFSPC